Showing default

COSMOS 1561, 15000

Orbit data source: Space-Track

COSMOS 1561, 15000 is a payload satellite owned by GUKOS (CIS) in LEO that was launched on Mon, 28 May 1984 UTC via a KOSMOS 11K65M launch vehicle from the Plesetsk Missile And Space Complex (PKMTR). Payload-class satellites include a variety of spacecraft equipped with specific instruments for various scientific and technological missions. These include communications satellites like Starlink; space stations such as the ISS; scientific satellites like the Hubble; Earth observation satellites from companies like Planet Labs, Umbra, and HawkEye 360; GPS; miniature CubeSats for education and research; and military/defense satellites.

Loading next visibility...
Identifier
15000, 1984-052C
Orbit
LEO
Country
Flag of CISCIS
Related business
Manufacturer
NPO PM
Mission
Spacecraft
Bus & Motor
STRELA-1 11F625, Unknown motor
Mass
60 kg wet, 60 kg dry
Launch date (UTC)
1984-05-28 (42 years ago)
Launch vehicle
KOSMOS 11K65M
Launch site
Plesetsk Missile And Space Complex (PKMTR)
Object type
Payload
Rocket body
Debris
Shape & HBR
Unknown
Radar Cross Section
Medium (>0.1 m² and <1 m²)

Expand to show TLE details & history
Last TLE update: 10 hours ago

TLE from 10 hours ago
0 COSMOS 1561
1 15000U 84052C   26036.95267134 -.00000020  00000-0 -28394-4 0  9993
2 15000  74.0096 204.8639 0014546  89.7802  27.0263 12.47989403899362
Epoch: 2026-02-05T22:51Z
TLE epoch observation values (Epoch: 2026-02-05T22:51:50.803Z)
Latitude
59.12586°
Longitude
-122.68181°
Altitude
1,472.378 km
Speed
7.137 km/s
True Right ascension
23h 45m 30s
True Declination
58° 59' 17"
Sunlit
Object was in daylight at epoch
Visualization orbit readout
Latitude
Unknown
Longitude
Unknown
Altitude
Unknown
Speed
Unknown
Apparent Right ascension
Unknown
Apparent Declination
Unknown
Sunlit
N/A
Visualization observer readout
Local Sidereal Time
11:08:03
Azimuth
Unknown
Elevation
Unknown
Doppler factor
Unknown
Orbital elements
Apogee altitude
1,482.172 km
Perigee altitude
1,459.338 km
Semi-major axis
7,848.892 km
Eccentricity
0.00145
Inclination
74.0096°
RAAN
204.8639°
Arg. of periapsis
89.7802°
True anomaly
27.10216°
Mean anomaly
27.0263°
Eccentric anomaly
27.06422°
Mean motion
3.12126 °/min
Orbital period
115.34 mins
BSTAR
-0.000028394
Loading maneuver chart data...
Computing Atmospheric mass density...
Loading historical data...
Loading historical data...
Loading historical data...
Loading historical data...
Loading historical data...
Loading historical data...
Loading historical data...

Documentation

Showing up to 5 results
|